Time,TemperatureF,DewpointF,PressureIn,WindDirection,WindDirectionDegrees,WindSpeedMPH,WindSpeedGustMPH,Humidity,HourlyPrecipIn,Conditions,Clouds,dailyrainin,SoftwareType,DateUTC
2013-01-24 00:03:00,31.0,18.0,30.04,West,263,4.0,4.0,58,0.00,,,0.00,,2013-01-24 05:03:00,
2013-01-24 00:12:00,31.0,18.0,30.04,West,263,4.0,4.0,58,0.00,,,0.00,,2013-01-24 05:12:00,
2013-01-24 00:22:00,31.0,18.0,30.05,WNW,284,1.0,5.0,58,0.00,,,0.00,,2013-01-24 05:22:00,
2013-01-24 00:33:00,31.0,18.0,30.05,WNW,288,3.0,4.0,58,0.00,,,0.00,,2013-01-24 05:33:00,
2013-01-24 00:42:00,31.0,18.0,30.05,WNW,288,3.0,4.0,58,0.00,,,0.00,,2013-01-24 05:42:00,
2013-01-24 00:53:00,30.0,17.0,30.06,West,264,2.0,3.0,58,0.00,,,0.00,,2013-01-24 05:53:00,
2013-01-24 01:02:00,30.0,17.0,30.06,West,259,5.0,5.0,59,0.00,,,0.00,,2013-01-24 06:02:00,
2013-01-24 01:12:00,30.0,17.0,30.06,West,259,5.0,5.0,59,0.00,,,0.00,,2013-01-24 06:12:00,
2013-01-24 01:22:00,30.0,17.0,30.07,West,269,2.0,5.0,59,0.00,,,0.00,,2013-01-24 06:22:00,
2013-01-24 01:32:00,29.0,16.0,30.08,West,271,3.0,3.0,59,0.00,,,0.00,,2013-01-24 06:32:00,
2013-01-24 01:42:00,29.0,16.0,30.08,West,271,3.0,3.0,59,0.00,,,0.00,,2013-01-24 06:42:00,
2013-01-24 01:53:00,29.0,16.0,30.08,West,266,3.0,8.0,59,0.00,,,0.00,,2013-01-24 06:53:00,
2013-01-24 02:03:00,29.0,17.0,30.09,West,264,1.0,0.0,60,0.00,,,0.00,,2013-01-24 07:03:00,
2013-01-24 02:12:00,29.0,17.0,30.09,West,264,1.0,0.0,60,0.00,,,0.00,,2013-01-24 07:12:00,
2013-01-24 02:23:00,28.0,16.0,30.09,West,281,5.0,5.0,60,0.00,,,0.00,,2013-01-24 07:23:00,
2013-01-24 02:33:00,28.0,16.0,30.10,West,271,4.0,6.0,61,0.00,,,0.00,,2013-01-24 07:33:00,
2013-01-24 02:43:00,28.0,16.0,30.10,West,271,4.0,6.0,61,0.00,,,0.00,,2013-01-24 07:43:00,
2013-01-24 02:53:00,28.0,16.0,30.11,WSW,248,3.0,4.0,61,0.00,,,0.00,,2013-01-24 07:53:00,
2013-01-24 03:02:00,28.0,16.0,30.11,West,262,3.0,4.0,61,0.00,,,0.00,,2013-01-24 08:02:00,
2013-01-24 03:12:00,28.0,16.0,30.11,West,262,3.0,4.0,61,0.00,,,0.00,,2013-01-24 08:12:00,
2013-01-24 03:23:00,28.0,17.0,30.13,West,264,4.0,5.0,63,0.00,,,0.00,,2013-01-24 08:23:00,
2013-01-24 03:33:00,28.0,17.0,30.14,WSW,249,6.0,6.0,63,0.00,,,0.00,,2013-01-24 08:33:00,
2013-01-24 03:43:00,28.0,17.0,30.14,WSW,249,6.0,6.0,63,0.00,,,0.00,,2013-01-24 08:43:00,
2013-01-24 03:53:00,28.0,17.0,30.14,West,260,5.0,5.0,64,0.00,,,0.00,,2013-01-24 08:53:00,
2013-01-24 04:03:00,27.0,17.0,30.16,West,273,4.0,7.0,65,0.00,,,0.00,,2013-01-24 09:03:00,
2013-01-24 04:13:00,27.0,17.0,30.16,West,273,4.0,7.0,65,0.00,,,0.00,,2013-01-24 09:13:00,
2013-01-24 04:23:00,26.0,16.0,30.17,West,281,3.0,7.0,66,0.00,,,0.00,,2013-01-24 09:23:00,
2013-01-24 04:33:00,26.0,16.0,30.18,WNW,285,7.0,7.0,66,0.00,,,0.00,,2013-01-24 09:33:00,
2013-01-24 04:43:00,26.0,16.0,30.18,WNW,285,7.0,7.0,66,0.00,,,0.00,,2013-01-24 09:43:00,
2013-01-24 04:53:00,24.0,15.0,30.20,WNW,302,8.0,11.0,67,0.00,,,0.00,,2013-01-24 09:53:00,
2013-01-24 05:03:00,23.0,13.0,30.21,NNW,336,5.0,6.0,66,0.00,,,0.00,,2013-01-24 10:03:00,
2013-01-24 05:12:00,23.0,13.0,30.21,NNW,336,5.0,6.0,66,0.00,,,0.00,,2013-01-24 10:12:00,
2013-01-24 05:23:00,22.0,11.0,30.22,WNW,284,8.0,8.0,62,0.00,,,0.00,,2013-01-24 10:23:00,
2013-01-24 05:33:00,21.0,9.0,30.24,NNW,336,5.0,7.0,59,0.00,,,0.00,,2013-01-24 10:33:00,
2013-01-24 05:43:00,21.0,9.0,30.24,NNW,336,5.0,7.0,59,0.00,,,0.00,,2013-01-24 10:43:00,
2013-01-24 05:53:00,21.0,10.0,30.25,NNW,335,2.0,4.0,61,0.00,,,0.00,,2013-01-24 10:53:00,
2013-01-24 06:03:00,21.0,10.0,30.25,NNW,335,2.0,4.0,61,0.00,,,0.00,,2013-01-24 11:03:00,
2013-01-24 06:12:00,21.0,10.0,30.25,NNW,335,2.0,4.0,61,0.00,,,0.00,,2013-01-24 11:12:00,
2013-01-24 06:23:00,20.0,8.0,30.27,NW,307,5.0,5.0,59,0.00,,,0.00,,2013-01-24 11:23:00,
2013-01-24 06:33:00,20.0,8.0,30.29,NW,318,2.0,3.0,59,0.00,,,0.00,,2013-01-24 11:33:00,
2013-01-24 06:43:00,20.0,8.0,30.29,NW,318,2.0,3.0,59,0.00,,,0.00,,2013-01-24 11:43:00,
2013-01-24 06:53:00,19.0,7.0,30.31,West,274,5.0,5.0,59,0.00,,,0.00,,2013-01-24 11:53:00,
2013-01-24 07:03:00,19.0,7.0,30.32,NW,307,6.0,7.0,59,0.00,,,0.00,,2013-01-24 12:03:00,
2013-01-24 07:12:00,19.0,7.0,30.32,NW,307,6.0,7.0,59,0.00,,,0.00,,2013-01-24 12:12:00,
2013-01-24 07:23:00,19.0,8.0,30.33,WNW,302,5.0,6.0,61,0.00,,,0.00,,2013-01-24 12:23:00,
2013-01-24 07:33:00,18.0,7.0,30.34,NW,323,7.0,7.0,61,0.00,,,0.00,,2013-01-24 12:33:00,
2013-01-24 07:43:00,18.0,7.0,30.34,NW,323,7.0,7.0,61,0.00,,,0.00,,2013-01-24 12:43:00,
2013-01-24 07:53:00,18.0,8.0,30.35,NW,323,4.0,4.0,64,0.00,,,0.00,,2013-01-24 12:53:00,
2013-01-24 08:03:00,17.0,8.0,30.37,NNW,338,0.0,0.0,66,0.00,,,0.00,,2013-01-24 13:03:00,
2013-01-24 08:13:00,17.0,8.0,30.37,NNW,338,0.0,0.0,66,0.00,,,0.00,,2013-01-24 13:13:00,
2013-01-24 08:23:00,17.0,6.0,30.37,NW,326,3.0,3.0,61,0.00,,,0.00,,2013-01-24 13:23:00,
2013-01-24 08:33:00,17.0,7.0,30.38,WNW,302,3.0,3.0,64,0.00,,,0.00,,2013-01-24 13:33:00,
2013-01-24 08:43:00,17.0,7.0,30.38,WNW,302,3.0,3.0,64,0.00,,,0.00,,2013-01-24 13:43:00,
2013-01-24 08:53:00,17.0,6.0,30.40,North,1,3.0,4.0,62,0.00,,,0.00,,2013-01-24 13:53:00,
2013-01-24 09:03:00,18.0,6.0,30.40,WNW,291,6.0,6.0,58,0.00,,,0.00,,2013-01-24 14:03:00,
2013-01-24 09:12:00,18.0,6.0,30.40,WNW,291,6.0,6.0,58,0.00,,,0.00,,2013-01-24 14:12:00,
2013-01-24 09:23:00,18.0,4.0,30.41,NW,316,6.0,6.0,53,0.00,,,0.00,,2013-01-24 14:23:00,
2013-01-24 09:33:00,18.0,3.0,30.42,WNW,283,3.0,6.0,51,0.00,,,0.00,,2013-01-24 14:33:00,
2013-01-24 09:43:00,18.0,3.0,30.42,WNW,283,3.0,6.0,51,0.00,,,0.00,,2013-01-24 14:43:00,
2013-01-24 09:54:00,19.0,3.0,30.42,WNW,300,5.0,13.0,50,0.00,,,0.00,,2013-01-24 14:54:00,
2013-01-24 10:03:00,19.0,3.0,30.42,NNW,347,5.0,5.0,50,0.00,,,0.00,,2013-01-24 15:03:00,
2013-01-24 10:12:00,19.0,3.0,30.42,NNW,347,5.0,5.0,50,0.00,,,0.00,,2013-01-24 15:12:00,
2013-01-24 10:23:00,19.0,2.0,30.43,NW,305,5.0,6.0,47,0.00,,,0.00,,2013-01-24 15:23:00,
2013-01-24 10:33:00,19.0,2.0,30.43,NW,305,5.0,6.0,47,0.00,,,0.00,,2013-01-24 15:33:00,
2013-01-24 10:43:00,19.0,0.0,30.44,NNW,342,0.0,4.0,43,0.00,,,0.00,,2013-01-24 15:43:00,
2013-01-24 10:53:00,20.0,1.0,30.45,NW,312,4.0,4.0,43,0.00,,,0.00,,2013-01-24 15:53:00,
2013-01-24 11:03:00,20.0,0.0,30.46,North,350,4.0,6.0,40,0.00,,,0.00,,2013-01-24 16:03:00,
2013-01-24 11:12:00,20.0,0.0,30.46,North,350,4.0,6.0,40,0.00,,,0.00,,2013-01-24 16:12:00,
2013-01-24 11:23:00,21.0,1.0,30.46,North,6,2.0,0.0,40,0.00,,,0.00,,2013-01-24 16:23:00,
2013-01-24 11:33:00,21.0,0.0,30.46,NNW,345,2.0,0.0,39,0.00,,,0.00,,2013-01-24 16:33:00,
2013-01-24 11:43:00,21.0,0.0,30.46,NNW,345,2.0,0.0,39,0.00,,,0.00,,2013-01-24 16:43:00,
2013-01-24 12:02:00,22.0,2.0,30.47,North,4,2.0,2.0,41,0.00,,,0.00,,2013-01-24 17:02:00,
2013-01-24 12:12:00,22.0,2.0,30.47,North,4,2.0,2.0,41,0.00,,,0.00,,2013-01-24 17:12:00,
2013-01-24 12:22:00,22.0,1.0,30.46,NNW,343,5.0,0.0,40,0.00,,,0.00,,2013-01-24 17:22:00,
2013-01-24 12:32:00,23.0,1.0,30.46,NW,307,2.0,0.0,38,0.00,,,0.00,,2013-01-24 17:32:00,
2013-01-24 12:42:00,23.0,1.0,30.46,NW,307,2.0,0.0,38,0.00,,,0.00,,2013-01-24 17:42:00,
2013-01-24 12:52:00,23.0,1.0,30.45,NW,308,6.0,6.0,38,0.00,,,0.00,,2013-01-24 17:52:00,
2013-01-24 13:02:00,23.0,2.0,30.44,North,11,3.0,3.0,39,0.00,,,0.00,,2013-01-24 18:02:00,
2013-01-24 13:12:00,23.0,-1.0,30.44,NW,315,1.0,4.0,34,0.00,,,0.00,,2013-01-24 18:12:00,
2013-01-24 13:23:00,23.0,-1.0,30.44,NW,315,1.0,4.0,34,0.00,,,0.00,,2013-01-24 18:23:00,
2013-01-24 13:33:00,23.0,-1.0,30.44,NW,315,3.0,5.0,34,0.00,,,0.00,,2013-01-24 18:33:00,
2013-01-24 13:42:00,23.0,-1.0,30.44,NW,315,3.0,5.0,34,0.00,,,0.00,,2013-01-24 18:42:00,
2013-01-24 13:53:00,23.0,0.0,30.42,WNW,297,5.0,5.0,36,0.00,,,0.00,,2013-01-24 18:53:00,
2013-01-24 14:02:00,23.0,-1.0,30.42,East,82,5.0,5.0,35,0.00,,,0.00,,2013-01-24 19:02:00,
2013-01-24 14:12:00,25.0,-1.0,30.42,NW,305,4.0,4.0,32,0.00,,,0.00,,2013-01-24 19:12:00,
2013-01-24 14:22:00,25.0,-1.0,30.42,NW,305,4.0,4.0,32,0.00,,,0.00,,2013-01-24 19:22:00,
2013-01-24 14:33:00,24.0,0.0,30.41,NE,34,4.0,6.0,35,0.00,,,0.00,,2013-01-24 19:33:00,
2013-01-24 14:42:00,24.0,0.0,30.41,NE,34,1.0,2.0,34,0.00,,,0.00,,2013-01-24 19:42:00,
2013-01-24 14:53:00,24.0,0.0,30.41,NE,34,1.0,2.0,34,0.00,,,0.00,,2013-01-24 19:53:00,
2013-01-24 15:02:00,24.0,0.0,30.41,SE,145,1.0,0.0,35,0.00,,,0.00,,2013-01-24 20:02:00,
2013-01-24 15:11:00,24.0,1.0,30.42,North,359,1.0,0.0,36,0.00,,,0.00,,2013-01-24 20:11:00,
2013-01-24 15:22:00,24.0,1.0,30.42,North,359,1.0,0.0,36,0.00,,,0.00,,2013-01-24 20:22:00,
2013-01-24 15:32:00,25.0,1.0,30.42,NE,51,0.0,2.0,35,0.00,,,0.00,,2013-01-24 20:32:00,
2013-01-24 15:42:00,25.0,1.0,30.42,SE,143,3.0,3.0,35,0.00,,,0.00,,2013-01-24 20:42:00,
2013-01-24 15:52:00,25.0,1.0,30.42,SE,143,3.0,3.0,35,0.00,,,0.00,,2013-01-24 20:52:00,
2013-01-24 16:02:00,25.0,1.0,30.42,ESE,104,0.0,0.0,34,0.00,,,0.00,,2013-01-24 21:02:00,
2013-01-24 16:12:00,25.0,1.0,30.42,SSE,156,0.0,0.0,35,0.00,,,0.00,,2013-01-24 21:12:00,
2013-01-24 16:22:00,25.0,1.0,30.42,SSE,156,0.0,0.0,35,0.00,,,0.00,,2013-01-24 21:22:00,
2013-01-24 16:33:00,25.0,0.0,30.42,SE,132,1.0,0.0,33,0.00,,,0.00,,2013-01-24 21:33:00,
2013-01-24 16:43:00,25.0,0.0,30.42,SE,132,1.0,0.0,33,0.00,,,0.00,,2013-01-24 21:43:00,
2013-01-24 16:53:00,24.0,0.0,30.42,East,84,1.0,0.0,34,0.00,,,0.00,,2013-01-24 21:53:00,
2013-01-24 17:03:00,24.0,0.0,30.42,East,84,4.0,6.0,34,0.00,,,0.00,,2013-01-24 22:03:00,
2013-01-24 17:12:00,24.0,0.0,30.42,East,84,4.0,6.0,34,0.00,,,0.00,,2013-01-24 22:12:00,
2013-01-24 17:22:00,24.0,0.0,30.41,ENE,70,0.0,0.0,35,0.00,,,0.00,,2013-01-24 22:22:00,
2013-01-24 17:32:00,23.0,0.0,30.41,ENE,70,0.0,0.0,36,0.00,,,0.00,,2013-01-24 22:32:00,
2013-01-24 17:42:00,23.0,0.0,30.41,ENE,70,0.0,0.0,36,0.00,,,0.00,,2013-01-24 22:42:00,
2013-01-24 17:53:00,23.0,0.0,30.42,ENE,75,0.0,0.0,36,0.00,,,0.00,,2013-01-24 22:53:00,
2013-01-24 18:03:00,23.0,1.0,30.42,ENE,75,0.0,0.0,37,0.00,,,0.00,,2013-01-24 23:03:00,
2013-01-24 18:12:00,23.0,1.0,30.42,ENE,75,0.0,0.0,37,0.00,,,0.00,,2013-01-24 23:12:00,
2013-01-24 18:22:00,22.0,1.0,30.43,East,94,0.0,0.0,39,0.00,,,0.00,,2013-01-24 23:22:00,
2013-01-24 18:32:00,22.0,1.0,30.43,East,94,0.0,0.0,39,0.00,,,0.00,,2013-01-24 23:32:00,
2013-01-24 18:42:00,22.0,1.0,30.43,East,94,0.0,0.0,39,0.00,,,0.00,,2013-01-24 23:42:00,
2013-01-24 18:52:00,22.0,2.0,30.42,East,94,0.0,0.0,41,0.00,,,0.00,,2013-01-24 23:52:00,
2013-01-24 19:02:00,21.0,2.0,30.43,ENE,65,0.0,0.0,42,0.00,,,0.00,,2013-01-25 00:02:00,
2013-01-24 19:12:00,21.0,2.0,30.43,ENE,65,0.0,0.0,42,0.00,,,0.00,,2013-01-25 00:12:00,
2013-01-24 19:22:00,21.0,2.0,30.44,ENE,65,0.0,0.0,43,0.00,,,0.00,,2013-01-25 00:22:00,
2013-01-24 19:32:00,21.0,2.0,30.44,East,100,0.0,0.0,43,0.00,,,0.00,,2013-01-25 00:32:00,
2013-01-24 19:42:00,21.0,2.0,30.44,East,100,0.0,0.0,43,0.00,,,0.00,,2013-01-25 00:42:00,
2013-01-24 19:53:00,21.0,3.0,30.43,East,100,0.0,0.0,44,0.00,,,0.00,,2013-01-25 00:53:00,
2013-01-24 20:02:00,20.0,3.0,30.43,East,79,0.0,0.0,46,0.00,,,0.00,,2013-01-25 01:02:00,
2013-01-24 20:12:00,20.0,2.0,30.42,East,90,0.0,0.0,45,0.00,,,0.00,,2013-01-25 01:12:00,
2013-01-24 20:22:00,20.0,2.0,30.42,East,90,0.0,0.0,45,0.00,,,0.00,,2013-01-25 01:22:00,
2013-01-24 20:32:00,20.0,3.0,30.42,East,96,0.0,0.0,46,0.00,,,0.00,,2013-01-25 01:32:00,
2013-01-24 20:42:00,20.0,3.0,30.42,East,96,0.0,0.0,46,0.00,,,0.00,,2013-01-25 01:42:00,
2013-01-24 20:52:00,20.0,4.0,30.42,East,94,0.0,4.0,48,0.00,,,0.00,,2013-01-25 01:52:00,
2013-01-24 21:02:00,20.0,3.0,30.41,East,80,0.0,0.0,47,0.00,,,0.00,,2013-01-25 02:02:00,
2013-01-24 21:11:00,20.0,3.0,30.41,East,80,0.0,0.0,47,0.00,,,0.00,,2013-01-25 02:11:00,
2013-01-24 21:22:00,19.0,3.0,30.40,ENE,75,2.0,2.0,48,0.00,,,0.00,,2013-01-25 02:22:00,
2013-01-24 21:32:00,19.0,3.0,30.40,ESE,117,0.0,6.0,49,0.00,,,0.00,,2013-01-25 02:32:00,
2013-01-24 21:42:00,19.0,3.0,30.40,ENE,77,4.0,4.0,50,0.00,,,0.00,,2013-01-25 02:42:00,
2013-01-24 21:53:00,19.0,3.0,30.40,ENE,77,4.0,4.0,50,0.00,,,0.00,,2013-01-25 02:53:00,
2013-01-24 22:02:00,19.0,4.0,30.40,East,97,3.0,3.0,51,0.00,,,0.00,,2013-01-25 03:02:00,
2013-01-24 22:12:00,19.0,4.0,30.40,ENE,65,1.0,0.0,52,0.00,,,0.00,,2013-01-25 03:12:00,
2013-01-24 22:22:00,19.0,4.0,30.40,ENE,65,1.0,0.0,52,0.00,,,0.00,,2013-01-25 03:22:00,
2013-01-24 22:33:00,19.0,4.0,30.40,ENE,66,0.0,0.0,52,0.00,,,0.00,,2013-01-25 03:33:00,
2013-01-24 22:42:00,19.0,4.0,30.40,ENE,66,0.0,0.0,52,0.00,,,0.00,,2013-01-25 03:42:00,
2013-01-24 22:53:00,19.0,5.0,30.40,ENE,58,0.0,0.0,53,0.00,,,0.00,,2013-01-25 03:53:00,
2013-01-24 23:02:00,19.0,5.0,30.40,ENE,72,0.0,5.0,53,0.00,,,0.00,,2013-01-25 04:02:00,
2013-01-24 23:12:00,19.0,5.0,30.40,East,98,2.0,0.0,54,0.00,,,0.00,,2013-01-25 04:12:00,
2013-01-24 23:22:00,19.0,5.0,30.40,East,98,2.0,0.0,54,0.00,,,0.00,,2013-01-25 04:22:00,
2013-01-24 23:32:00,19.0,5.0,30.38,East,79,5.0,5.0,54,0.00,,,0.00,,2013-01-25 04:32:00,
2013-01-24 23:42:00,19.0,5.0,30.38,East,79,5.0,5.0,54,0.00,,,0.00,,2013-01-25 04:42:00,
2013-01-24 23:52:00,19.0,5.0,30.38,ENE,73,5.0,5.0,54,0.00,,,0.00,,2013-01-25 04:52:00,